Regional Weather Roundup
Issued by NWS Northern Indiana

Home | Current Version | Previous Version | Graphics & Text | Print | Product List | Glossary On
Versions: 1 2 3 4 5 6 7 8 9 10 11 12 13 14 15 16 17 18 19 20 21 22 23 24 25 26 27 28 29 30 31 32 33 34 35 36 37 38 39 40 41 42 43 44 45 46 47 48 49 50
000
ASUS43 KIWX 011010
RWRIWX

KIWX WEATHER ROUNDUP
NATIONAL WEATHER SERVICE NORTHERN INDIANA
500 AM EST SUN MAR 01 2015

NOTE: "FAIR" INDICATES FEW OR NO CLOUDS BELOW 12,000 FEET WITH NO
SIGNIFICANT WEATHER AND/OR OBSTRUCTIONS TO VISIBILITY.

* THESE STATIONS ARE NOT UNDER NWS QUALITY CONTROL. THEY ALSO MAY NOT
  REPORT WEATHER SUCH AS PRECIPITATION OR FOG.

INZ001>027-011100-
NORTHERN INDIANA

CITY           SKY/WX    TMP DP  RH WIND       PRES   REMARKS
VALPARAISO     CLOUDY    17  14  88 E3        30.38F
MICHIGAN CITY* CLOUDY    18  12  79 CALM      30.40S
LAPORTE*       CLOUDY    19  17  92 CALM      30.39S
KNOX*            N/A     19   9  63 CALM      30.39R
SOUTH BEND     CLOUDY    17  13  84 E3        30.39F
GOSHEN         CLOUDY    17  12  80 CALM      30.38F
MONTICELLO*    LGT SNOW  19  17  93 CALM      30.38S
LOGANSPORT*    LGT SNOW  19  18  93 E3        30.38S
ROCHESTER*     LGT SNOW  21  19  93 E3        30.39S
WARSAW*        LGT SNOW  18  16  93 CALM      30.37F
ANGOLA*        CLOUDY    14  10  85 CALM      30.36S
FORT WAYNE     LGT SNOW  17  14  88 NE3       30.39S FOG
HUNTINGTON*    LGT SNOW  18  13  82 CALM      30.38R
PERU/GRISSOM   LGT SNOW  19  16  86 E3        30.36S FOG
MARION*        LGT SNOW  19  17  90 CALM      30.38S

$$
INZ028>050-011100-
CENTRAL INDIANA

CITY           SKY/WX    TMP DP  RH WIND       PRES   REMARKS
LAFAYETTE      LGT SNOW  20  18  92 E3        30.38F VSB 3/4
KOKOMO*        CLOUDY    19  16  86 SE3       30.37S
MUNCIE*        LGT SNOW  22  19  89 CALM      30.37S VSB 3/4
INDIANAPOLIS   LGT SNOW  23  21  92 E3        30.36S VSB 1

$$
MIZ043>046-050>051-056>058-064>065-071>073-077>080-011100-
SOUTHWEST LOWER MICHIGAN

CITY           SKY/WX    TMP DP  RH WIND       PRES   REMARKS
BATTLE CREEK   LGT SNOW  14   9  80 CALM      30.39S
BENTON HARBOR  MOCLDY    11   9  92 CALM      30.40F FOG
COLDWATER*     CLOUDY    15  11  85 CALM      30.38R
HILLSDALE*     FLURRIES  14  11  88 CALM      30.36R
HOLLAND        CLEAR      8   6  92 SE3       30.41F FOG
GRAND RAPIDS   PTCLDY    10   7  87 CALM      30.40S FOG
KALAMAZOO      LGT SNOW  12   8  84 CALM      30.39S FOG
STURGIS*       CLOUDY    16  12  86 CALM      30.37S
THREE RIVERS*  CLOUDY    15  11  85 CALM      30.39F

$$
OHZ001>008-015>018-024>025-011100-
NORTHWEST OHIO

CITY           SKY/WX    TMP DP  RH WIND       PRES   REMARKS
WAUSEON*       LGT SNOW  16  14  93 E3        30.40S
DEFIANCE       LGT SNOW  17  13  84 CALM      30.41S FOG
FINDLAY        LGT SNOW  21  17  84 E3        30.38S FOG
TOLEDO EXPRESS LGT SNOW  16  12  86 CALM      30.40S FOG
TOLEDO METCALF LGT SNOW  17  13  84 CALM      30.42S FOG
LIMA           LGT SNOW  23  20  88 CALM      30.36F VSB 3/4

$$
AND FOR LAKE MICHIGAN COASTAL AND OPEN LAKE BUOY OBSERVATIONS

STATION/POSITION TEMP    WIND        PRES    VSBY  WAVE
                 AIR SEA DIR/SP/G                  HT/PER
                 (F)     (DEG/KT/KT) (MB)    (MI)  (FT/S)
CALUMET HARBOR    19     220/  1/  2 1027.8F
MICHIGAN CITY     18     150/  1/  2   N/A
SAINT JOSEPH      15        CALM     1029.5F

$$
&&


USA.gov is the U.S. government's official web portal to all federal, state and local government web resources and services.